Andover, NJ

6:47 AM EDT on June 25, 2017 (GMT -0400)
Andover

Weather History for K12N - January, 2014

Change the Weather History Date:

Saturday, January 11, 2014

  Actual Average (KFWN) Record (KFWN)
Temperature  
Mean Temperature 46 °F -  
Max Temperature 60 °F 33 °F 60 °F (2014)
Min Temperature 33 °F 14 °F -20 °F (1968)
Degree Days  
Heating Degree Days 18    
Moisture  
Dew Point 48 °F    
Average Humidity 96    
Maximum Humidity 100    
Minimum Humidity 86    
Precipitation  
Precipitation 0.97 in - - ()
Sea Level Pressure  
Sea Level Pressure 29.68 in    
Wind  
Wind Speed 5 mph (SSW)    
Max Wind Speed 16 mph    
Max Gust Speed 26 mph    
Averages and records for this station are not official NWS values.
T = Trace of Precipitation, MM = Missing Value Source: NWS Daily Summary

Daily Weather History Graph

Daily Weather History Graph

Search for Another Location

Airport or City:

Trip Planner

Search our weather history database for the weather conditions in past years. The results will help you decide how hot, cold, wet, or windy it might be!

Date:

Astronomy

Jan. 11, 2014 Rise Set
Actual Time 7:23 AM EST 4:51 PM EST
Civil Twilight 6:52 AM EST 5:21 PM EST
Nautical Twilight 6:18 AM EST 5:55 PM EST
Astronomical Twilight 5:45 AM EST 6:28 PM EST
Moon 1:33 PM EST (1/11) 3:25 AM EST (1/11)
Length of Visible Light 10h 29m
Length of Day
9h 27m
Waxing Gibbous, 83% of the Moon is Illuminated
Jan 11
Waxing Gibbous
Jan 15
Full
Jan 24
Last Quarter
Jan 30
New
Feb 6
First Quarter

Hourly Weather History & Observations

Time (EST) Temp. Windchill Dew Point Humidity Pressure Visibility Wind Dir Wind Speed Gust Speed Precip Events Conditions
12:54 AM 33.1 °F - 32.0 °F 96% 30.18 in - Calm Calm - 0.03 in   Unknown
1:54 AM 33.1 °F 30.0 °F 32.0 °F 96% 30.14 in - North 3.5 mph - 0.05 in   Unknown
2:54 AM 33.1 °F 28.7 °F 33.1 °F 100% 30.10 in - NNE 4.6 mph - 0.04 in   Unknown
3:54 AM 34.0 °F 31.0 °F 34.0 °F 100% 30.05 in - NE 3.5 mph - N/A   Unknown
4:54 AM 46.0 °F 42.5 °F 45.0 °F 96% 29.99 in - SSW 6.9 mph - 0.05 in   Unknown
5:54 AM 45.0 °F - 44.1 °F 97% 29.95 in - Calm Calm - 0.04 in   Unknown
7:54 AM 50.0 °F - 50.0 °F 100% 29.88 in - Variable 5.8 mph - N/A   Unknown
8:54 AM 52.0 °F - 52.0 °F 100% 29.85 in - SSW 5.8 mph - 0.01 in   Unknown
9:54 AM 55.0 °F - 54.0 °F 96% 29.78 in - SSW 8.1 mph - 0.01 in   Unknown
10:54 AM 57.0 °F - 55.9 °F 96% 29.72 in - SSW 11.5 mph 20.7 mph 0.09 in   Unknown
11:54 AM 57.9 °F - 57.0 °F 97% 29.63 in - South 10.4 mph 21.9 mph 0.04 in   Unknown
12:54 PM 57.9 °F - 57.0 °F 97% 29.58 in - South 9.2 mph 19.6 mph 0.06 in   Unknown
1:54 PM 57.9 °F - 57.0 °F 97% 29.49 in - South 4.6 mph - 0.13 in   Unknown
2:54 PM 60.1 °F - 57.9 °F 93% 29.45 in - South 10.4 mph 23.0 mph 0.03 in   Unknown
3:54 PM 59.0 °F - 55.9 °F 90% 29.47 in - SW 16.1 mph 26.5 mph 0.21 in   Unknown
4:54 PM 55.0 °F - 53.1 °F 93% 29.47 in - SSW 8.1 mph 18.4 mph 0.04 in   Unknown
5:54 PM 51.1 °F - 51.1 °F 100% 29.46 in - South 4.6 mph - 0.04 in   Unknown
6:54 PM 48.9 °F - 48.9 °F 100% 29.42 in - Calm Calm - 0.06 in   Unknown
7:54 PM 53.1 °F - 48.9 °F 86% 29.32 in - SSW 6.9 mph - 0.03 in   Unknown
8:54 PM 52.0 °F - 50.0 °F 93% 29.38 in - Variable 5.8 mph - N/A   Unknown
9:54 PM 50.0 °F - 48.9 °F 96% 29.39 in - SSW 6.9 mph - 0.01 in   Unknown
10:54 PM 50.0 °F - 48.0 °F 93% 29.42 in - WSW 8.1 mph - N/A   Unknown
11:54 PM 48.0 °F - 44.1 °F 86% 29.42 in - South 4.6 mph - N/A   Unknown